Location: Sceptre
(50.8619°N, 109.2670°W)
Time: 00:47:23
(UTC+00:00)

Envisat - Pass Details

Date: 28 January 2022
Orbit: 764 x 765 km, 98.2° (Epoch: 22 May)

Event Time Altitude Azimuth Distance (km) Brightness Sun altitude
Rises 13:01:37 0° 10° (N) 3,244 6.3 -18.4°
Reaches altitude 10° 13:03:59 10° 4° (N) 2,313 5.5 -18.0°
Maximum altitude 13:08:50 46° 293° (WNW) 1,020 3.2 -17.2°
Drops below altitude 10° 13:13:40 10° 221° (SW) 2,299 5.2 -16.5°
Sets 13:16:02 0° 215° (SW) 3,222 6.0 -16.1°
